Погода в Неверкино

Россия / Пензенская область     52°47′25″N   46°44′20″E
темп.,
°C
ветер,
м/с
пор.,
м/с
влажн.,
%
обл.,
%
осадки,
мм/ч
давл.,
гПа
погр.,
м
27 октября, ср
ср2700:00+1зюз51365100 0.0 1027330
03:00+1зюз51463100 0.0 1026365
06:00+1зюз61462100 0.0 1025342
09:00+3зюз61454100 0.0 1025426
12:00+6зюз71342100 0.0 1024589
15:00+7зюз71339100 0.0 1022743
18:00+5юз61540100 0.0 1021534
21:00+4зюз7164333 0.0 1020551
28 октября, чт
чт2800:00+3зюз715465 0.0 1019506
03:00+2зюз61453100 0.0 1018422
06:00+3зюз51061100 0.0 1018376
09:00+4зюз4865100 0.0 1019335
12:00+7зюз5864100 0.0 1018660
15:00+7юз5865100 0.0 1016969
18:00+6ююз51171100 0.0 1016557
21:00+6юз51079100 0.3 1014905
29 октября, пт
пт2900:00+5зюз5991100 2.1 1014891
03:00+5зсз3896100 4.4 1015512
06:00+6с61088100 0.1 1018874
09:00+3ссв71389100 0.2 1024656
12:00+4ссв68565 0.0 1026719
15:00+3ссв674539 0.0 1030762
18:00−1св38604 0.0 1032306
21:00−2св24635 0.0 1034134
30 октября, сб
сб3000:00−2вюв11605 0.0 103411
03:00−1зюз22565 0.0 103529
06:00−2з23575 0.0 103566
09:00+1з464754 0.0 1035223
12:00+5з57355 0.0 1034432
15:00+5з4845100 0.0 1034288
18:00+2з396060 0.0 1034155
21:00+2з496713 0.0 1034166
31 октября, вс
вс3100:00+1з48761 0.0 1035140
03:00+1з38795 0.0 1035139
06:00+1з37795 0.0 1035116
09:00+4з48655 0.0 1035193
12:00+8з46475 0.0 1034367
15:00+8зюз47485 0.0 1033295
18:00+5зюз34620 0.0 103350
21:00+4зюз33625 0.0 103339